Location: Saratoga Springs
(43.0831°N, 73.7850°W)
Time: 12:12:26
(UTC-04:00)

Transit 4A - Pass Details

Date: 21 April 2024
Orbit: 871 x 971 km, 66.8° (Epoch: 20 May)

Event Time Altitude Azimuth Distance (km) Brightness Sun altitude
Rises 23:38:49 0° 314° (NW) 3,467 11.8 -32.0°
Reaches altitude 10° 23:42:03 10° 296° (WNW) 2,530 10.7 -32.2°
Enters shadow 23:45:24 18° 261° (W) 2,023 9.7 -32.4°
